STARLINK-1861 (47148 NORAD) Tracking and Keplerian Element Data
This shows tracking and keplerian element data for the satellite.
Feedback or suggestion? Click here.
Element | Value |
Catalog | 47148 |
Name | STARLINK-1861 |
Epoch Orbit | 181 |
Epoch Day | 60.91667824 |
Epoch Year | 2021 |
RAAN | 243.7651 |
Inclination | 53.0495 |
Eccentricity | 0.0001483 |
Argument of Perigee | 82.3198 |
Mean Anonmoly | 338.6702 |
Mean Motion | 15.06366094 |
Decay Rate | 0.00037083 |
L1 | 1 47148U 20088AC 21060.91667824 .00037083 00000-0 24976-2 0 9995 |
L2 | 2 47148 53.0495 243.7651 0001483 82.3198 338.6702 15.06366094 1816 |
Live tracking and technical data element details for STARLINK-1861 (NORAD 47148). STARLINK-1861 can be tracked NOW for your location showing map with azimuth and elevation plus other details from your city location.
Track the satellite on the map from your city or location and see movement details for azimuth, elevation, latitude, longitude, range, height, and movement on the map or in text.
IsCatalogInMostPopularTable: catalog: 47148, numindb: 33
Update: records affected: 1
GetName: 47148 STARLINK-1861
Hit Count: updated at: Tue, 02 Mar 2021 13:44:20 GMT